Home > Time Zones > World Clock > Weather > Iran > Tehran > Past weeks

Flag Weather past 2 weeks in Tehran, Iran

Now
45 °F

Thunderstorms. Partly cloudy.


Feels Like: 40 °F
Forecast: 39 / 51 °F
Wind: 9 mph from North

Location: Tehran-Mehrabad

Current Time: Nov 28, 2014 at 4:03:33 AM

Latest Report: Nov 28, 2014 at 3:30 AM


Visibility: 4 mi

Pressure: 30.12 "Hg

Humidity: 81%

Dew point: 39 °F

Location of TehranLocation

Historic Weather in Tehran — Graph

°F

Tehran temperature yesterday

Maximum temperature yesterday: 54 °F (at 1:30 PM)
Minimum temperature yesterday: 41 °F (at 5:00 AM)
Average temperature yesterday: 47 °F

Past Weeks' High & Low Weather Summary

 TemperatureHumidityPressure
High63 °F (Nov 16, 1:00 PM)82% (Nov 25, 8:00 PM)30.36 "Hg (Nov 25, 8:00 PM)
Low41 °F (Nov 13, 3:00 AM)21% (Nov 17, 4:30 PM)29.86 "Hg (Nov 23, 6:00 AM)
Average51 °F48%30.14 "Hg
* Reported Nov 13 2:30 AM — Nov 28 3:00 AM, Tehran, Weather by CustomWeather, © 2014

Note: Actual official high and low records may vary slightly from our data, if they occured in-between our weather recording intervals... More about our weather records

Advertising

Tehran weather history for previous 24 hours

 ConditionsComfort  
Time TempWeatherWind HumidityBarometerVisibility
3:00 AM
Nov 28
45 °FThunderstorms. Partly cloudy.12 mph81%30.12 "HgN/A
2:30 AM45 °FPartly cloudy.5 mph81%30.09 "HgN/A
2:00 AM45 °FPartly cloudy.No wind76%30.09 "HgN/A
1:30 AM46 °FPartly cloudy.5 mph71%30.09 "HgN/A
1:00 AM48 °FPartly cloudy.5 mph62%30.09 "HgN/A
12:30 AM46 °FPassing clouds.5 mph66%30.09 "HgN/A
12:00 AM48 °FPartly cloudy.7 mph62%30.09 "HgN/A
11:30 PM
Nov 27
46 °FPartly cloudy.7 mph66%30.09 "HgN/A
11:00 PM46 °FPassing clouds.5 mph71%30.09 "HgN/A
10:30 PM46 °FPassing clouds.No wind71%30.09 "HgN/A
10:00 PM45 °FPassing clouds.5 mph76%30.09 "HgN/A
9:30 PM45 °FPassing clouds.5 mph76%30.09 "HgN/A
9:00 PM45 °FPassing clouds.12 mph76%30.12 "HgN/A
8:30 PM43 °FPassing clouds.12 mph81%30.12 "Hg4 mi
8:00 PM45 °FSprinkles. Mostly cloudy.9 mph81%30.12 "Hg3 mi
7:30 PM46 °FRain showers. Passing clouds.21 mph76%30.12 "Hg2 mi
7:00 PM45 °FRain showers. Partly cloudy.5 mph81%30.09 "Hg3 mi
6:30 PM46 °FSprinkles. Partly cloudy.16 mph76%30.09 "Hg3 mi
6:00 PM50 °FSprinkles. Partly cloudy.9 mph58%30.07 "Hg2 mi
5:30 PM52 °FPassing clouds.5 mph58%30.07 "Hg2 mi
5:00 PM54 °FScattered clouds.5 mph47%30.04 "Hg3 mi
4:30 PM54 °FScattered clouds.5 mph47%30.04 "Hg3 mi
4:00 PM54 °FPassing clouds.7 mph51%30.04 "Hg4 mi
3:30 PM54 °FPassing clouds.7 mph51%30.04 "Hg4 mi
3:00 PM54 °FScattered clouds.7 mph54%30.04 "Hg3 mi
2:30 PM54 °FScattered clouds.7 mph54%30.04 "Hg3 mi
2:00 PM54 °FHaze.7 mph51%30.04 "Hg3 mi
1:30 PM54 °FHaze.7 mph54%30.04 "Hg3 mi
12:30 PM52 °FHaze.9 mph58%30.07 "Hg2 mi
12:00 PM52 °FHaze.9 mph58%30.07 "Hg2 mi
11:30 AM52 °FHaze.7 mph54%30.07 "Hg2 mi
11:00 AM52 °FScattered clouds.7 mph58%30.09 "Hg2 mi
10:30 AM50 °FScattered clouds.7 mph58%30.09 "Hg2 mi
10:00 AM48 °FScattered clouds.7 mph62%30.09 "Hg2 mi
9:30 AM48 °FScattered clouds.7 mph62%30.09 "Hg2 mi
9:00 AM46 °FPartly sunny.9 mph71%30.09 "Hg2 mi
8:30 AM46 °FPartly sunny.5 mph71%30.09 "Hg4 mi
8:00 AM45 °FPartly sunny.5 mph71%30.09 "Hg4 mi
7:30 AM43 °FPartly sunny.No wind71%N/A4 mi
7:00 AM43 °FPassing clouds.No wind71%30.07 "Hg4 mi
6:30 AM41 °FPassing clouds.No wind76%30.07 "Hg4 mi
6:00 AM41 °FClear.No wind81%30.04 "Hg10 mi
5:30 AM41 °FClear.No wind81%30.04 "Hg10 mi
5:00 AM41 °FClear.No wind81%30.04 "Hg10 mi
4:30 AM43 °FClear.No wind76%30.04 "Hg10 mi
4:00 AM43 °FClear.No wind76%30.04 "Hg10 mi
Weather by CustomWeather, © 2014

See weather overviewHow to use our weather pages